Location: Caltech
(34.1382°N, 118.1253°W)
Time: 17:26:56
(UTC-07:00)

Aureole 3 Rocket - Visible Passes

Search period start: 06 May 2016 00:00
Search period end: 16 May 2016 00:00
Orbit: 398 x 1748 km, 82.5° (Epoch: 05 May)

Date Brightness Start Highest point End Pass type
(mag) Time Alt. Az. Time Alt. Az. Time Alt. Az.
06 May 6.2 04:16:51 10° NNE 04:20:35 21° E 04:25:14 10° SE visible
07 May 4.0 05:10:13 10° N 05:15:10 81° E 05:22:12 10° S visible
08 May 5.7 04:18:04 10° NNE 04:22:37 31° E 04:28:39 10° SE visible
09 May 6.8 03:27:59 10° ENE 03:29:59 12° ENE 03:32:10 10° E visible
09 May 4.0 05:12:03 10° NNW 05:17:15 74° W 05:24:38 10° S visible
10 May 5.1 04:19:32 10° N 04:24:40 45° E 04:31:44 10° SSE visible
11 May 6.4 03:28:11 10° NE 03:32:06 19° E 03:36:50 10° ESE visible
11 May 4.2 05:14:00 10° NNW 05:19:24 55° W 05:26:54 10° S visible
12 May 4.6 04:21:11 10° N 04:26:45 64° E 04:34:34 10° SSE visible
13 May 6.0 03:29:15 10° NNE 03:34:12 27° E 03:40:32 10° SE visible
13 May 4.6 05:16:04 10° NNW 05:21:34 42° W 05:28:58 10° SSW visible
14 May 6.9 02:40:10 10° ENE 02:41:27 11° ENE 02:42:47 10° E visible
14 May 4.3 04:22:57 10° N 04:28:53 86° E 04:37:12 10° S visible
15 May 5.6 03:30:39 10° NNE 03:36:19 38° E 03:43:51 10° SSE visible
15 May 5.1 05:18:15 10° NNW 05:23:44 32° W 05:30:48 10° SSW visible
